SCP
-0 -0 0 0 0 0 0 0 0 0 0 0 0 0 0 0 0 0 0 0 0 0 0 0 0 0 0 0 0 0 0 0 0 0 0 0 0 0 0 0 0 0 0
-0 0 0 0 0 0 0 0 0 0 0 0 0 0 0 0 0 0 0 0 0 0 0 0 0 0 0 0 0 0 0 0 0 0 0 0 0 0 0 0 0 0 0
0 0 0 0 0 0 0 0 0 0 0 0 0 0 0 0 0 0 0 0 0 0 0 0 0 0 0 0 0 0 0 0 0 0 0 0 0 0 0 0 0 0 0
0 0 0 0 0 0 0 0 0 0 0 0 0 0 0 0 0 0 0 0 0 0 0 0 0 0 0 0 0 0 0 0 0 0 0 0 0 0 0 0 0 0 0
0 0 0 0 0 0 0 0 0 0 0 0 0 0 0 0 0 0 0 0 0 0 0 0 0 0 0 0 0 0 0 0 0 0 0 0 0 0 0 0 0 0 0
0 0 0 0 0 0 0 0 0 0 0 0 0 0 0 0 0 0 0 0 0 0 0 0 0 0 0 0 0 0 0 0 0 0 0 0 0 0 0 0 0 0 0
0 0 0 0 0 0 0 0 0 0 0 0 0 0 0 0 0 0 0 0 0 0 0 0 0 0 0 0 0 0 0 0 0 0 0 0 0 0 0 0 0 0 0
0 0 0 0 0 0 0 0 0 0 0 0 0 0 0 0 0 0 0 0 0 0 0 0 0 0 0 0 0 0 0 0 0 0 0 0 0 0 0 0 0 0 0
0 0 0 0 0 0 0 0 0 0 0 0 0 0 0 0 0 0 0 0 0 0 0 0 0 0 0 0 0 0 0 0 0 0 0 0 0 0 0 0 0 0 0
0 0 0 0 0 0 0 0 0 0 0 0 0 0 0 0 0 0 0 0 0 0 0 0 0 0 0 0 0 0 0 0 0 0 0 0 0 0 0 0 0 0 0
0 0 0 0 0 0 0 0 0 0 0 0 0 0 0 0 0 0 0 0 0 0 0 0 0 0 0 0 0 0 0 0 0 0 0 0 0 0 0 0 0 0 0
0 0 0 0 0 0 0 0 0 0 0 0 0 0 0 0 0 0 0 0 0 0 0 0 0 0 0 0 0 0 0 0 0 0 0 0 0 0 0 0 0 0 0
0 0 0 0 0 0 0 0 0 0 0 0 0 0 0 0 0 0 0 0 0 0 0 0 0 0 0 0 0 0 0 0 0 0 0 0 0 0 0 0 0 0 0
0 0 0 0 0 0 0 0 0 0 0 0 0 0 0 0 0 0 0 0 0 0 0 0 0 0 0 0 0 0 0 0 0 0 0 0 0 0 0 0 0 0 0
0 0 0 0 0 0 0 0 0 0 0 0 0 0 0 0 0 0 0 0 0 0 0 0 0 0 0 0 0 0 0 0 0 0 0 0 0 0 0 0 0 0 0
0 0 0 0 0 0 0 0 0 0 0 0 0 0 0 0 0 0 0 0 0 0 0 0 0 0 0 0 0 0 0 0 0 0 0 0 0 0 0 0 0 0 0
0 0 0 0 0 0 0 0 0 0 0 0 0 0 0 0 0 0 0 0 0 0 0 0 0 0 0 0 0 0 0 0 0 0 0 0 0 0 0 0 0 0 0
0 0 0 0 0 0 0 0 0 0 0 0 0 0 0 0 0 0 0 0 0 0 0 0 0 0 0 0 0 0 0 0 0 0 0 0 0 0 0 0 0 0 0
0 0 0 0 0 0 0 0 0 0 0 0 0 0 0 0 0 0 0 0 0 0 0 0 0 0 0 0 0 0 0 0 0 0 0 0 0 0 0 0 0 0 0
0 0 0 0 0 0 0 0 0 0 0 0 0 0 0 0 0 0 0 0 0 0 0 0 0 0 0 0 0 0 0 0 0 0 0 0 0 0 0 0 0 0 0
0 0 0 0 0 0 0 0 0 0 0 0 0 0 0 0 0 0 0 0 0 0 0 0 0 0 0 0 0 0 0 0 0 0 0 0 0 0 0 0 0 0 0
0 0 0 0 0 0 0 0 0 0 0 0 0 0 0 0 0 0 0 0 0 0 0 0 0 0 0 0 0 0 0 0 0 0 0 0 0 0 0 0 0 0 0
0 0 0 0 0 0 0 0 0 0 -0 0 0 0 0 0 0 0 0 0 0 0 0 0 0 0 0 0 0 0 0 0 0 0 0 0 0 0 0 0 0 0 0
0 0 0 0 0 0 0 0 0 0 0 0 0 0 0 0 0 0 0 0 0 0 0 0 0 0 0 0 0 0 0 0 0 0 0 0 0 0 0 0 0 0 0
0 0 0 0 0 0 0 0 0 0 0 0 0 0 0 0 0 0 0 0 0 0 0 0 0 0 0 0 0 0 0 0 0 0 0 0 0 0 0 0 0 0 0
0 0 0 0 0 0 0 0 0 0 0 0 0 0 0 -0 0 0 0 0 0 0 0 0 0 0 0 0 0 0 0 0 0 0 0 0 0 0 0 0 0 0 0
Wind_Speed
1 1 0 1 1 1 2 2 3 4 4 4 4 4 4 4 3 3 2 7 7 7 6 6 6 6 5 5 6 6 7 7 7 7 7 7 7 7 7 6 6 5 5
2 2 1 2 2 2 2 2 3 3 3 3 4 4 4 3 3 3 3 4 8 8 7 8 7 7 6 6 6 7 7 7 7 7 8 8 7 7 7 6 6 6 5
3 2 2 2 2 2 3 3 4 3 4 4 4 4 4 3 3 3 3 3 3 6 8 8 9 8 8 8 8 8 8 8 8 8 8 8 8 7 6 6 6 6 5
4 3 3 2 2 3 3 3 3 4 4 3 3 3 3 3 3 3 3 3 3 3 5 9 9 10 10 9 9 9 9 8 8 8 8 8 8 8 7 7 7 6 6
4 3 3 2 3 3 3 3 3 3 3 3 3 3 3 3 3 4 4 4 3 4 3 6 9 10 10 10 9 9 9 9 9 8 8 8 8 8 8 8 8 7 6
4 4 3 3 3 3 3 3 3 3 2 2 4 4 3 3 3 4 3 3 3 4 4 5 4 6 10 10 10 9 9 9 9 8 8 8 8 8 8 8 8 7 7
4 4 3 3 3 3 3 3 3 4 3 2 3 3 4 4 4 3 3 3 4 3 4 4 4 4 4 9 10 10 10 9 9 9 9 9 9 9 8 8 8 8 7
3 3 4 3 3 3 3 3 3 2 2 2 2 3 2 4 4 4 3 3 4 3 4 4 4 4 4 3 6 10 9 9 10 10 9 9 9 9 8 8 8 8 8
3 3 4 3 3 3 3 2 3 3 2 2 2 3 3 1 1 3 4 4 4 3 3 3 4 4 4 3 3 6 9 9 9 9 9 9 9 9 9 9 9 9 9
3 3 4 4 3 3 3 2 2 2 3 1 2 2 2 3 3 1 3 3 3 4 3 3 3 3 3 3 4 7 8 8 8 9 9 9 9 9 9 9 9 9 9
3 3 4 3 3 3 3 3 3 3 2 2 1 1 2 3 3 3 1 2 3 3 3 3 2 3 3 3 3 6 9 9 9 9 10 10 10 10 10 10 9 9 9
2 2 3 3 3 2 3 2 3 3 2 3 2 2 2 2 2 2 2 1 1 2 3 3 2 2 2 2 4 7 8 8 9 10 10 10 11 11 11 10 10 10 9
0 1 2 2 2 2 2 3 3 2 2 3 2 1 1 1 2 3 3 2 1 1 2 2 2 2 2 2 2 5 6 6 7 8 9 9 10 10 10 10 11 10 10
2 2 2 2 2 2 3 3 2 2 2 2 2 2 2 1 2 2 3 3 2 2 2 2 2 2 2 1 2 3 3 5 5 6 7 8 9 10 10 11 11 11 10
2 2 3 3 2 3 3 3 2 2 2 2 2 2 2 1 2 2 2 3 4 2 1 2 1 2 1 1 2 2 2 4 5 6 6 7 7 8 9 10 10 10 10
2 3 2 2 2 2 3 3 2 2 3 2 2 3 2 1 2 2 2 2 2 4 2 1 1 1 1 1 2 2 2 4 5 5 5 6 7 7 8 9 9 9 9
3 3 3 2 2 2 2 3 2 2 3 2 2 3 2 2 2 2 2 2 2 3 3 1 1 1 1 1 2 2 2 2 2 5 5 5 6 7 7 7 8 8 9
3 3 3 3 2 2 2 2 2 2 2 2 2 2 1 2 3 2 2 2 2 2 3 2 1 1 1 1 1 1 2 2 1 4 4 5 5 6 6 7 7 7 8
3 3 3 3 3 3 2 2 2 2 2 2 2 2 1 3 2 1 2 2 1 2 2 2 0 1 1 1 1 2 2 2 2 3 4 4 5 5 6 6 6 6 6
4 3 3 3 3 3 3 2 3 2 2 2 1 2 2 2 2 2 2 2 2 2 2 2 1 1 1 1 1 1 2 2 2 3 3 4 5 5 6 6 6 5 5
4 4 3 3 2 2 3 3 3 3 3 2 1 1 1 2 3 3 2 2 3 2 2 1 0 1 1 1 1 1 1 2 2 2 2 2 3 3 3 5 5 5 5
3 3 4 3 3 2 5 7 5 3 3 2 1 0 0 1 2 2 3 4 4 4 3 2 1 1 2 2 1 1 0 1 2 2 1 2 2 2 3 2 4 6 6
4 4 3 4 3 4 6 6 7 4 3 3 2 1 1 1 1 1 2 3 2 2 4 4 3 3 2 3 2 1 1 1 3 3 0 2 2 2 3 3 5 5 6
4 4 4 4 4 4 6 6 6 4 3 2 2 2 2 1 1 2 2 2 1 1 1 2 3 4 3 3 3 3 2 1 2 2 1 1 2 2 3 3 5 6 6
4 4 4 5 4 4 6 7 6 3 2 2 2 2 2 2 3 4 3 2 0 2 1 0 1 1 1 1 2 1 1 1 2 3 1 1 2 2 2 3 4 7 7
5 4 4 4 5 5 6 7 7 3 2 1 1 1 3 3 3 4 4 3 2 2 1 2 2 3 2 2 1 2 3 2 1 2 2 1 1 1 3 3 2 3 4
Wind_Direction
107 116 106 47 54 69 74 69 69 70 70 65 75 84 75 70 71 57 44 62 66 66 68 66 65 66 70 75 76 74 70 63 58 58 54 52 53 55 56 55 51 52 44
104 100 87 69 68 88 88 85 84 79 73 73 68 71 74 74 76 65 48 53 60 62 60 59 56 56 71 80 77 73 69 64 61 57 55 53 53 54 52 51 49 46 40
91 92 86 76 81 93 88 80 74 74 76 71 64 61 66 64 67 65 53 42 38 51 54 54 56 58 72 77 75 72 66 64 59 58 57 54 52 51 47 45 45 44 39
81 84 84 80 81 83 83 84 74 73 66 65 65 54 53 55 61 71 64 55 40 36 41 52 58 60 66 70 72 69 69 67 65 63 60 56 52 50 48 46 43 39 33
76 85 84 84 81 80 77 88 72 85 83 69 70 59 46 50 54 72 67 60 52 49 37 49 56 57 62 64 67 69 67 64 63 62 60 56 52 48 46 45 39 34 31
73 80 82 83 82 81 68 75 79 66 81 81 74 58 38 35 44 54 61 58 53 55 51 50 44 46 54 59 63 63 62 59 59 60 59 54 50 47 46 44 38 34 30
72 83 85 80 80 86 87 90 86 71 56 60 72 46 23 29 38 38 45 58 53 52 57 54 48 48 43 48 52 57 56 55 58 61 60 56 52 48 45 42 38 35 32
73 90 89 89 90 93 79 76 89 84 46 50 101 90 40 10 7 21 33 56 48 41 48 59 55 53 46 36 41 50 50 53 58 59 59 56 51 45 41 36 36 36 36
76 82 90 93 93 99 101 93 103 107 90 27 73 127 130 168 336 356 23 38 42 47 39 51 59 51 50 41 26 35 44 44 53 55 55 51 46 43 40 37 35 38 38
75 82 88 89 92 94 96 92 95 102 107 67 29 51 121 147 132 57 357 12 30 43 35 52 57 51 49 46 42 43 42 38 46 48 49 47 44 41 40 36 34 33 35
58 76 88 88 92 93 93 85 85 85 97 104 85 71 68 63 86 122 102 350 10 14 25 38 49 48 45 46 44 46 45 43 45 45 45 42 40 37 36 34 31 28 28
35 63 90 89 92 95 93 95 95 92 91 90 85 85 110 110 115 116 129 108 12 348 19 29 35 35 35 37 45 51 51 48 47 45 43 39 36 34 31 29 27 25 24
85 75 90 97 94 97 100 96 90 89 91 91 93 90 95 117 137 128 122 123 70 349 12 17 10 15 28 29 27 44 53 48 45 45 41 36 33 30 28 26 23 22 24
180 161 120 110 105 96 97 93 84 83 84 88 91 91 82 74 104 127 138 132 93 19 16 347 350 1 5 18 16 35 35 37 39 39 37 34 32 29 27 24 22 22 24
161 142 125 115 107 96 97 98 85 79 87 83 83 83 83 70 82 94 117 135 137 132 315 307 342 339 347 17 10 25 25 31 35 36 36 33 31 30 28 26 24 27 28
142 135 122 124 115 103 102 96 86 77 83 71 83 84 73 63 68 79 98 103 124 140 159 265 266 288 355 37 28 13 20 24 19 27 28 29 29 30 30 28 26 25 26
142 142 143 137 135 125 110 102 96 90 88 70 72 91 78 71 71 67 76 85 94 117 129 306 333 353 22 18 356 350 359 358 358 20 17 21 24 22 23 23 24 23 24
149 145 141 137 144 147 139 126 117 100 106 104 94 92 76 84 74 66 78 88 95 114 131 138 326 340 314 285 318 343 359 10 343 10 14 19 18 20 22 20 20 20 20
155 149 139 147 158 162 156 150 136 122 124 127 129 123 117 106 90 81 88 95 95 93 110 131 200 318 323 336 2 356 2 344 344 14 12 11 14 15 11 12 13 13 13
163 165 160 166 167 161 155 148 137 130 121 118 132 138 137 140 153 141 118 127 120 94 88 99 69 345 331 336 38 7 349 344 337 355 360 5 6 3 358 360 2 5 6
173 168 160 170 168 162 169 163 152 144 136 122 92 114 145 151 157 153 142 155 136 121 110 100 69 3 335 345 308 285 318 321 322 336 339 337 342 343 340 342 351 359 0
172 163 166 174 182 186 168 167 156 149 150 144 138 112 80 112 121 129 131 148 153 151 158 151 180 221 264 255 252 235 241 4 318 312 356 314 345 325 316 319 342 352 353
175 175 179 175 188 194 172 163 159 149 151 163 173 176 129 95 101 108 93 83 103 129 157 164 180 220 231 228 203 229 219 212 243 271 60 301 317 305 300 329 341 347 351
175 181 187 185 184 197 183 172 161 150 151 170 180 175 174 226 183 150 127 93 23 308 227 180 194 222 223 221 199 200 208 223 280 293 149 268 303 293 306 312 332 344 350
179 185 181 179 183 201 193 183 165 148 157 202 209 191 184 205 201 161 137 146 310 318 342 118 228 256 271 257 190 125 89 74 312 300 284 184 290 300 302 301 320 341 346
182 180 183 189 190 200 199 190 169 151 164 204 243 224 206 204 206 173 159 165 195 261 314 7 6 0 356 352 11 169 179 175 215 285 278 181 283 337 322 302 306 322 330